[[{"header":{"parameterUnit":"m.s-1","parameterCategory":1,"la1":30.2991,"la2":30.254,"lo1":-89.0895,"lo2":-89.0444,"dy":0.0017,"dx":0.0017,"nx":28,"ny":28,"refTime":"2024-05-05T09:00:00:Z","depth":0,"parameterNumber":2,"parameterNumberName":"U-component_of_WINDS"},"data":[0,0,0,0,0,0,0,0,0,0,0,0,0,0,0,0,0,0,0,0,0,0,0,0,0,0,0,0,0,0,0,0,0,0,0,0,0,0,0,0,0,0,0,0,0,0,0,0,0,0,0,0,0,0,0,0,0,0,-1.6415,-1.6415,0,-1.6423,-1.6423,-1.6423,-1.6409,-1.6409,-1.6408,-1.6408,-1.6417,-1.6417,-1.6418,0,0,0,0,0,0,0,0,0,0,0,0,0,-1.639,-1.6391,-1.6415,-1.6415,-1.6415,-1.6423,-1.6423,-1.6423,-1.6409,-1.6409,-1.6408,-1.6408,-1.6416,-1.6417,-1.6418,0,0,0,0,0,0,0,0,0,0,0,0,0,-1.64,-1.6391,-1.6415,-1.6409,-1.6409,-1.6423,-1.6423,-1.6423,-1.6409,-1.6409,-1.6408,-1.6407,-1.6416,-1.6417,-1.6418,-1.6438,0,0,-1.6421,-1.6422,0,0,0,0,0,0,0,0,-1.6399,-1.6401,-1.641,-1.641,-1.6409,-1.6414,-1.6417,-1.6428,-1.641,-1.6409,-1.6408,-1.6407,-1.6416,-1.6417,-1.642,-1.6439,-1.6439,-1.6421,-1.6422,-1.6422,-1.6423,0,0,0,0,0,0,0,-1.6399,-1.64,-1.6418,-1.641,-1.641,-1.6407,-1.6407,-1.6419,-1.6417,-1.6409,-1.6408,-1.6409,-1.6416,-1.6419,-1.6421,-1.6439,-1.6421,-1.6422,-1.6423,-1.6423,-1.6475,-1.6476,0,0,0,0,0,0,-1.6398,-1.64,-1.6418,-1.6419,-1.6402,-1.6408,-1.6409,-1.6413,-1.6417,-1.6416,-1.641,-1.6409,-1.6418,-1.6419,-1.6421,-1.6445,-1.6422,-1.6423,-1.6424,-1.6474,-1.6475,-1.6476,0,0,0,0,0,0,-1.6398,-1.64,-1.6418,-1.6409,-1.6411,-1.6409,-1.6415,-1.6414,-1.6417,-1.6417,-1.6417,-1.6414,-1.6418,-1.6419,-1.6434,-1.6445,-1.6424,-1.6425,-1.6473,-1.6475,-1.6476,-1.6492,0,0,0,0,0,0,-1.6397,-1.64,-1.6407,-1.6409,-1.6411,-1.643,-1.6415,-1.6415,-1.6419,-1.6417,-1.642,-1.642,-1.6417,-1.6433,-1.6435,-1.6446,-1.6425,-1.6472,-1.6474,-1.6475,-1.6491,-1.6494,-1.6497,0,0,0,0,0,-1.6396,-1.6412,-1.6408,-1.641,-1.642,-1.6431,-1.6432,-1.6428,-1.642,-1.6427,-1.6427,-1.642,-1.6443,-1.6434,-1.6437,-1.6448,-1.6472,-1.6473,-1.6475,-1.649,-1.6493,-1.6497,0,0,0,0,0,0,-1.6412,-1.6412,-1.6407,-1.6424,-1.6428,-1.6429,-1.6438,-1.6432,-1.6439,-1.6437,-1.6432,-1.6433,-1.6449,-1.645,-1.644,-1.6468,-1.6456,-1.6458,-1.6466,-1.647,-1.6473,-1.6472,-1.6426,0,0,0,0,0,-1.6417,-1.6425,-1.6425,-1.644,-1.6442,-1.644,-1.6444,-1.6441,-1.6444,-1.6446,-1.6447,-1.6451,-1.6459,-1.6465,-1.6472,-1.6491,-1.6492,-1.65,-1.6503,-1.6506,-1.6508,-1.6518,-1.6522,-1.6482,-1.6482,-1.6482,0,0,-1.6428,-1.6429,-1.6435,-1.6443,-1.6445,-1.6454,-1.6441,-1.6451,-1.6458,-1.6448,-1.6461,-1.6462,-1.6467,-1.6484,-1.6491,-1.6485,-1.6519,-1.6508,-1.651,-1.651,-1.652,-1.6524,-1.6527,-1.6483,-1.6483,-1.6483,0,0,-1.6452,-1.6454,-1.6466,-1.6469,-1.6473,-1.6471,-1.6475,-1.6477,-1.6477,-1.6491,-1.6483,-1.6492,-1.6506,-1.6509,-1.6513,-1.654,-1.6533,-1.6542,-1.6557,-1.6567,-1.657,-1.6573,-1.6582,-1.6586,-1.6544,-1.6544,-1.6544,0,-1.6465,-1.6478,-1.6474,-1.6484,-1.6488,-1.6479,-1.6492,-1.6495,-1.6501,-1.6504,-1.6498,-1.6516,-1.6518,-1.6536,-1.6542,-1.6546,-1.6549,-1.6541,-1.657,-1.6573,-1.6575,-1.6584,-1.6588,-1.6545,-1.6545,-1.6545,-1.6545,0,-1.6494,-1.6503,-1.6513,-1.6519,-1.6524,-1.6536,-1.6533,-1.6539,-1.6536,-1.6535,-1.655,-1.6552,-1.656,-1.6564,-1.6561,-1.6582,-1.6578,-1.6571,-1.6559,-1.658,-1.6588,-1.6592,-1.6547,-1.6546,-1.6546,-1.6546,0,0,-1.6528,-1.6531,-1.6535,-1.6537,-1.6541,-1.6548,-1.656,-1.6568,-1.6573,-1.6578,-1.6587,-1.66,-1.6594,-1.6598,-1.6595,-1.6604,-1.6625,-1.6596,-1.6596,-1.6601,-1.6648,-1.6653,-1.6657,-1.6621,-1.6622,-1.6622,-1.6647,0,-1.6552,-1.6571,-1.6567,-1.6586,-1.6595,-1.6587,-1.6597,-1.6601,-1.6601,-1.6609,-1.6609,-1.6618,-1.6609,-1.6611,-1.662,-1.662,-1.6634,-1.6619,-1.663,-1.663,-1.6628,-1.6661,-1.6666,-1.6689,-1.665,-1.6651,-1.6651,0,-1.6582,-1.6588,-1.6607,-1.661,-1.6613,-1.6622,-1.6629,-1.6637,-1.6641,-1.6641,-1.6646,-1.6641,-1.6653,-1.6642,-1.6658,-1.6648,-1.6653,-1.6654,-1.6655,-1.6655,-1.6642,-1.6662,-1.6697,-1.67,-1.6656,-1.6656,-1.6656,0,-1.6604,-1.6617,-1.663,-1.6633,-1.6636,-1.6643,-1.6645,-1.6648,-1.6653,-1.666,-1.6663,-1.6671,-1.6675,-1.6681,-1.6679,-1.6671,-1.6697,-1.6685,-1.6697,-1.6697,-1.6702,-1.6701,-1.6737,-1.6706,-1.6706,-1.6705,-1.6705,0,-1.6631,-1.6643,-1.664,-1.6648,-1.6662,-1.6658,-1.6672,-1.6673,-1.6677,-1.6685,-1.6679,-1.6688,-1.6685,-1.6693,-1.6692,-1.6706,-1.6708,-1.6708,-1.6708,-1.6708,-1.6708,-1.6711,-1.6709,-1.6706,-1.6706,-1.6706,-1.6706,0,-1.6657,-1.6656,-1.667,-1.6672,-1.6673,-1.6683,-1.6685,-1.6693,-1.6693,-1.6704,-1.6707,-1.6707,-1.6716,-1.6715,-1.6726,-1.6725,-1.6742,-1.674,-1.6741,-1.674,-1.6752,-1.6751,-1.679,-1.6796,-1.6761,-1.6761,-1.6761,0,-1.6674,-1.6684,-1.6687,-1.6692,-1.6694,-1.6703,-1.6708,-1.6705,-1.671,-1.6716,-1.6723,-1.6732,-1.6739,-1.6755,-1.6756,-1.6765,-1.6763,-1.6776,-1.6764,-1.6764,-1.6762,-1.6762,-1.6762,-1.6778,-1.6779,-1.6779,-1.6779,0,-1.6705,-1.6703,-1.671,-1.6717,-1.6723,-1.6729,-1.6734,-1.6738,-1.6736,-1.6743,-1.6752,-1.6757,-1.6769,-1.6778,-1.6786,-1.6788,-1.6783,-1.6783,-1.6786,-1.6787,-1.6787,-1.6787,-1.6747,-1.6782,-1.6782,-1.6782,-1.6781,-1.6781,-1.6727,-1.6735,-1.6738,-1.6746,-1.675,-1.6754,-1.6762,-1.6763,-1.677,-1.6779,-1.6777,-1.6788,-1.6792,-1.6803,-1.6806,-1.6815,-1.681,-1.6815,-1.6816,-1.6817,-1.6818,-1.6786,-1.6816,-1.6816,-1.6816,-1.6816,-1.6816,0,-1.6757,-1.6758,-1.6766,-1.6773,-1.6779,-1.6774,-1.6779,-1.6785,-1.6795,-1.6799,-1.6806,-1.6817,-1.6826,-1.6828,-1.6837,-1.6844,-1.6842,-1.6846,-1.6845,-1.6846,-1.6822,-1.6818,-1.6848,-1.6848,-1.6848,-1.6848,-1.6848,-1.6848,-1.6773,-1.6786,-1.6785,-1.68,-1.6802,-1.6812,-1.6815,-1.682,-1.6823,-1.6836,-1.6843,-1.6844,-1.6848,-1.6857,-1.6865,-1.6866,-1.6869,-1.6874,-1.6874,-1.6851,-1.6848,-1.6845,-1.6841,-1.6875,-1.6875,-1.6897,-1.6897,-1.6897]},{"header":{"parameterUnit":"m.s-1","parameterCategory":1,"la1":30.2991,"la2":30.254,"lo1":-89.0895,"lo2":-89.0444,"dy":0.0017,"dx":0.0017,"nx":28,"ny":28,"refTime":"2024-05-05T09:00:00:Z","depth":0,"parameterNumber":3,"parameterNumberName":"V-component_of_WINDS"},"data":[0,0,0,0,0,0,0,0,0,0,0,0,0,0,0,0,0,0,0,0,0,0,0,0,0,0,0,0,0,0,0,0,0,0,0,0,0,0,0,0,0,0,0,0,0,0,0,0,0,0,0,0,0,0,0,0,0,0,3.1269,3.1269,0,3.1289,3.129,3.129,3.1254,3.1253,3.1251,3.125,3.1269,3.127,3.1272,0,0,0,0,0,0,0,0,0,0,0,0,0,3.1196,3.1198,3.1269,3.1269,3.1269,3.1289,3.129,3.129,3.1254,3.1252,3.1251,3.125,3.1268,3.127,3.1272,0,0,0,0,0,0,0,0,0,0,0,0,0,3.1223,3.1198,3.1269,3.1254,3.1253,3.1289,3.129,3.129,3.1254,3.1252,3.1251,3.1249,3.1268,3.127,3.1272,3.1323,0,0,3.128,3.1281,0,0,0,0,0,0,0,0,3.1222,3.1226,3.1256,3.1255,3.1254,3.1267,3.1271,3.1301,3.1255,3.1254,3.125,3.1248,3.127,3.1272,3.1279,3.1324,3.1325,3.128,3.1281,3.1282,3.1283,0,0,0,0,0,0,0,3.122,3.1225,3.1277,3.1256,3.1255,3.1245,3.1247,3.1276,3.1271,3.1254,3.1251,3.1254,3.1269,3.1277,3.128,3.1325,3.128,3.1282,3.1284,3.1284,3.1413,3.1415,0,0,0,0,0,0,3.122,3.1224,3.1276,3.1277,3.1233,3.1248,3.125,3.1265,3.1271,3.127,3.1256,3.1252,3.1274,3.1277,3.128,3.1341,3.1282,3.1285,3.1286,3.1411,3.1414,3.1416,0,0,0,0,0,0,3.1219,3.1225,3.1275,3.125,3.1256,3.1251,3.1268,3.1266,3.1275,3.1273,3.1271,3.1265,3.1273,3.1277,3.1313,3.1341,3.1286,3.1288,3.1409,3.1412,3.1415,3.1462,0,0,0,0,0,0,3.1217,3.1225,3.1245,3.1251,3.1257,3.1309,3.127,3.1268,3.1279,3.1275,3.1281,3.1281,3.1271,3.131,3.1316,3.1343,3.129,3.1407,3.1411,3.1414,3.1458,3.1466,3.1473,0,0,0,0,0,3.1215,3.1257,3.1246,3.1253,3.1282,3.1311,3.1314,3.1303,3.1282,3.1301,3.13,3.128,3.1337,3.1314,3.132,3.1349,3.1405,3.1409,3.1414,3.1454,3.1465,3.1473,0,0,0,0,0,0,3.1254,3.1257,3.1246,3.1291,3.1301,3.1304,3.1329,3.1314,3.133,3.1325,3.131,3.1312,3.1352,3.1354,3.1328,3.1399,3.1367,3.1373,3.1396,3.1405,3.1413,3.1412,3.1292,0,0,0,0,0,3.1268,3.1291,3.1293,3.1333,3.1339,3.1333,3.1345,3.1336,3.1345,3.1349,3.135,3.1359,3.1379,3.1392,3.141,3.1458,3.1459,3.1481,3.1488,3.1495,3.15,3.1526,3.1535,3.1431,3.1431,3.143,0,0,3.1297,3.1302,3.1317,3.1341,3.1347,3.1372,3.1337,3.1364,3.1381,3.1353,3.1388,3.1389,3.1398,3.1441,3.1459,3.1443,3.1529,3.15,3.1505,3.1507,3.1531,3.1541,3.155,3.1434,3.1433,3.1433,0,0,3.1362,3.1368,3.1402,3.141,3.1421,3.1417,3.1425,3.1431,3.1431,3.1466,3.1445,3.1466,3.15,3.1507,3.1516,3.1584,3.1567,3.159,3.163,3.1655,3.1664,3.1671,3.1696,3.1705,3.1596,3.1596,3.1596,0,3.1396,3.1433,3.1421,3.145,3.1461,3.1437,3.1472,3.1479,3.1495,3.1503,3.1485,3.1528,3.1532,3.1576,3.1593,3.16,3.1609,3.159,3.1664,3.1671,3.1677,3.1701,3.171,3.1599,3.1598,3.1598,3.1598,0,3.1475,3.15,3.1527,3.1544,3.1557,3.1589,3.1582,3.1597,3.1587,3.1584,3.162,3.1625,3.1643,3.1653,3.1643,3.1696,3.1686,3.1666,3.1634,3.169,3.1712,3.1721,3.1603,3.1602,3.1601,3.16,0,0,3.1565,3.1576,3.1586,3.1593,3.1604,3.1623,3.1653,3.1672,3.1685,3.1697,3.1722,3.1751,3.1733,3.1743,3.1733,3.1755,3.181,3.1733,3.1733,3.1747,3.1868,3.1883,3.1894,3.1798,3.18,3.1801,3.1868,0,3.163,3.1683,3.1674,3.1725,3.1749,3.1726,3.1752,3.1761,3.176,3.1779,3.1777,3.1799,3.1774,3.1779,3.18,3.1799,3.1834,3.1794,3.1821,3.1822,3.182,3.1905,3.1921,3.1983,3.1876,3.1877,3.1878,0,3.1713,3.1729,3.1783,3.179,3.18,3.1823,3.184,3.1859,3.1868,3.1866,3.1877,3.1863,3.1893,3.1861,3.1901,3.1874,3.1884,3.1885,3.1887,3.1889,3.1854,3.191,3.2003,3.2012,3.1892,3.1891,3.189,0,3.1774,3.1809,3.1846,3.1853,3.1862,3.1879,3.1883,3.1891,3.1903,3.1918,3.1925,3.1943,3.1952,3.1966,3.1957,3.1935,3.1999,3.1966,3.1998,3.1998,3.2012,3.2011,3.2108,3.2019,3.2019,3.2018,3.2018,0,3.1848,3.1882,3.1873,3.1896,3.1933,3.1922,3.1959,3.196,3.1967,3.1989,3.1971,3.1992,3.1979,3.1999,3.1992,3.2026,3.2031,3.2029,3.2027,3.2031,3.2031,3.2038,3.2033,3.2021,3.202,3.202,3.2019,0,3.1922,3.1918,3.1957,3.1962,3.1964,3.1992,3.1996,3.2017,3.2014,3.2043,3.2048,3.2044,3.2067,3.206,3.2083,3.2079,3.2123,3.2115,3.212,3.2118,3.215,3.2147,3.2255,3.2268,3.217,3.2171,3.2171,0,3.197,3.1996,3.2004,3.2018,3.2024,3.2047,3.2059,3.2049,3.2063,3.2076,3.2095,3.2116,3.2132,3.2169,3.2168,3.2186,3.2178,3.2215,3.2181,3.2184,3.2179,3.2178,3.218,3.2222,3.2223,3.2224,3.2224,0,3.2055,3.2052,3.2071,3.209,3.2106,3.212,3.2132,3.2144,3.2135,3.2151,3.2174,3.2187,3.2212,3.2233,3.2249,3.2253,3.2237,3.2235,3.2243,3.2248,3.225,3.2249,3.2138,3.2233,3.2232,3.2231,3.2231,3.223,3.2117,3.2139,3.2149,3.2171,3.218,3.2192,3.2212,3.2212,3.2232,3.2252,3.2244,3.2271,3.2279,3.23,3.2306,3.2326,3.2312,3.2324,3.2327,3.233,3.2334,3.2247,3.2329,3.2329,3.2328,3.2328,3.2328,0,3.2202,3.2207,3.2228,3.2246,3.2263,3.2248,3.2261,3.2276,3.23,3.231,3.2326,3.2353,3.2373,3.2374,3.2393,3.2409,3.2402,3.2414,3.2413,3.2414,3.2346,3.2337,3.2419,3.2419,3.2419,3.2419,3.2419,3.2419,3.2248,3.2284,3.2282,3.2322,3.2327,3.2354,3.2362,3.2373,3.2381,3.2412,3.2429,3.2429,3.2435,3.2454,3.2472,3.2472,3.248,3.2495,3.2491,3.2428,3.2419,3.241,3.2402,3.2496,3.2496,3.2558,3.2558,3.2559]}]]